Regional Weather Roundup
Issued by NWS Green Bay, WI

Home | Current Version | Previous Version | Graphics & Text | Print | Product List | Glossary Off
Versions: 1 2 3 4 5 6 7 8 9 10 11 12 13 14 15 16 17 18 19 20 21 22 23 24 25 26 27 28 29 30 31 32 33 34 35 36 37 38 39 40 41 42 43 44 45 46 47 48 49 50

000
ASUS43 KGRB 300100
RWRGRB

NORTH-CENTRAL AND NORTHEAST WISCONSIN REGIONAL WEATHER ROUNDUP
NATIONAL WEATHER SERVICE GREEN BAY WI
800 PM CDT FRI MAY 29 2015

WIZ005-009-010>012-018-019-300200-
NORTH CENTRAL WISCONSIN

CITY           SKY/WX    TMP DP  RH WIND       PRES   REMARKS
IRONWOOD       CLOUDY    54  54 100 N5        29.95S
MANITOWISH WTR NOT AVBL
ARBOR VITAE    NOT AVBL
EAGLE RIVER    NOT AVBL
LAND O LAKES   NOT AVBL
RHINELANDER    LGT RAIN  61  59  93 N5        29.93S FOG
PHILLIPS       NOT AVBL
ANTIGO         NOT AVBL
TOMAHAWK       NOT AVBL
MERRILL        NOT AVBL
$$

WIZ013-073-300200-
NORTHEAST WISCONSIN

CITY           SKY/WX    TMP DP  RH WIND       PRES   REMARKS
IRON MOUNTAIN  LGT RAIN  65  61  87 N14       29.89R FOG
MARINETTE      CLOUDY    70  63  78 NW3       29.85R
$$

WIZ017-030-035>037-045-300200-
CENTRAL WISCONSIN

CITY           SKY/WX    TMP DP  RH WIND       PRES   REMARKS
MEDFORD        NOT AVBL
WAUSAU         LGT RAIN  66  65  96 NW3       29.88F
MOSINEE        CLOUDY    64  64 100 W5        29.90F
MARSHFIELD     RAIN      66  64  93 CALM      29.90R FOG
WISC RAPIDS    RAIN      65  62  90 N5        29.90R
STEVENS POINT  NOT AVBL
WAUPACA        NOT AVBL
SHAWANO        NOT AVBL
CLINTONVILLE   NOT AVBL
$$

WIZ038-039-048-051-300200-
FOX VALLEY

CITY           SKY/WX    TMP DP  RH WIND       PRES   REMARKS
NWS GREEN BAY  MOCLDY    74  67  78 VRB3      29.85S
APPLETON       MOCLDY    73  64  73 SW7       29.86S
OSHKOSH        CLOUDY    73  66  78 S6        29.85S
FOND DU LAC    CLOUDY    70  67  90 S6        29.87R
$$

WIZ022-050-052-300200-
EAST CENTRAL WISCONSIN

CITY           SKY/WX    TMP DP  RH WIND       PRES   REMARKS
STURGEON BAY   MOCLDY    66  61  82 S8        29.87S
MANITOWOC      NOT AVBL
SHEBOYGAN      CLOUDY    70  66  87 S8        29.86F
$$

LMZ563-521-522-541>543-300200-
LAKESHORE

STATION/POSITION TIME  TEMP    WIND        PRES    VSBY  WAVE
                       AIR SEA DIR/SP/G                  HT/PER
                 (UTC) (F)     (DEG/KT/KT) (MB)    (MI)  (FT/S)
SHEBOYGAN LKSHOR 0000   61     210/  5/  5 1011.9F
KEWAUNEE LKSHORE 0000   51     180/ 11/ 13 1010.7F
ALGOMA MARINA    0008          210/ 13/ 15   N/A
TWO RIVERS CG    2345   56                 1017.5    3/8   1
NORTHPORT PIER   0000   54     140/  8/  9 1010.8R
N MID LAKE BUOY  2350   44 37  190/ 12/ 14 1011.3F         1/ 4
STURGEON BAY CG  0020   49 45  180/  9     1025.6      6   1
CHAMBERS ISLAND  0000   68     220/  5/  9 1010.8R
MENOMINEE LKSHOR 0000   72     200/  9/ 12 1011.0R
$$



USA.gov is the U.S. government's official web portal to all federal, state and local government web resources and services.